Home   Weather   Tampere   Past weeks

Flag for Finland Past Weather in Tampere, Finland — Yesterday and Last 2 Weeks

Now
37 °F

Light rain. Broken clouds.


Feels Like: 28 °F
Forecast: 31 / 44 °F
Wind: 17 mph from West

Location: Tampere / Pirkkala

Current Time: Apr 26, 2017 at 3:22:19 pm

Latest Report: Apr 26, 2017 at 2:50 pm


Visibility: N/A

Pressure: 29.36 "Hg

Humidity: 81%

Dew Point: 32 °F

Location of TampereLocation

Past Weather in Tampere — Graph

°F

Tampere Temperature Yesterday

Maximum temperature yesterday: 43 °F (at 6:20 pm)
Minimum temperature yesterday: 30 °F (at 3:20 am)
Average temperature yesterday: 36 °F

High & Low Weather Summary for the Past Weeks

 TemperatureHumidityPressure
High46 °F (Apr 20, 2:20 pm)100% (Apr 20, 7:50 pm)30.48 "Hg (Apr 20, 7:50 pm)
Low18 °F (Apr 15, 5:50 am)26% (Apr 19, 6:50 pm)29.15 "Hg (Apr 22, 3:50 am)
Average32 °F70%29.75 "Hg
* Reported Apr 11 1:20 pm — Apr 26 1:50 pm, Tampere, Weather by CustomWeather, © 2017

Note: Actual official high and low records may vary slightly from our data, if they occured in-between our weather recording intervals... More about our weather records

Advertising

Tampere Weather History for the Previous 24 Hours

Scroll right to see more
 ConditionsComfort  
Time TempWeatherWind HumidityBarometerVisibility
1:50 pm
Wed, Apr 26
36 °FLight rain. Broken clouds.15 mph93%29.33 "HgN/A
1:20 pm36 °FLight rain. Broken clouds.13 mph93%29.33 "Hg6 mi
12:50 pm36 °FLight rain. Broken clouds.15 mph93%29.33 "Hg5 mi
12:20 pm34 °FLight snow. Broken clouds.15 mph100%29.33 "Hg4 mi
11:50 am34 °FLight snow. Broken clouds.15 mph93%29.33 "Hg1 mi
11:20 am34 °FLight snow. Partly sunny.16 mph87%29.33 "HgN/A
10:50 am34 °FBroken clouds.16 mph93%29.33 "HgN/A
10:20 am34 °FPartly sunny.15 mph87%29.33 "HgN/A
9:50 am34 °FPartly sunny.14 mph93%29.33 "HgN/A
9:20 am34 °FPartly sunny.12 mph93%29.33 "HgN/A
8:50 am32 °FPartly sunny.13 mph93%29.33 "HgN/A
8:20 am32 °FPartly sunny.10 mph100%29.33 "HgN/A
7:50 am32 °FPartly sunny.9 mph100%29.33 "Hg3 mi
7:20 am32 °FIce fog.8 mph100%29.33 "Hg1 mi
6:50 am32 °FIce fog.8 mph100%29.33 "Hg2 mi
6:20 am32 °FBroken clouds.8 mph100%29.36 "Hg5 mi
5:50 am34 °FMostly cloudy.9 mph93%29.36 "HgN/A
5:20 am34 °FPassing clouds.8 mph100%29.36 "Hg5 mi
4:50 am34 °FMostly cloudy.5 mph93%29.36 "Hg4 mi
4:20 am32 °FMostly cloudy.6 mph100%29.36 "HgN/A
3:50 am32 °FScattered showers. Ice fog.6 mph100%29.39 "Hg2 mi
3:20 am32 °FLight snow. Light fog.5 mph100%29.39 "Hg4 mi
2:50 am32 °FLight rain. Mostly cloudy.5 mph100%29.39 "Hg3 mi
2:20 am32 °FSnow. Partly cloudy.1 mph100%29.42 "Hg1 mi
1:50 am32 °FLight rain. Partly cloudy.2 mph100%29.42 "Hg3 mi
1:20 am34 °FThunderstorms. Partly cloudy.7 mph93%29.42 "Hg2 mi
12:50 am36 °FLight rain. Partly cloudy.2 mph93%29.45 "HgN/A
12:20 am36 °FLight rain. Passing clouds.1 mph93%29.45 "HgN/A
11:50 pm
Tue, Apr 25
36 °FScattered showers. Passing clouds.3 mph93%29.45 "HgN/A
11:20 pm36 °FOvercast.No wind93%29.47 "HgN/A
10:50 pm36 °FPassing clouds.7 mph93%29.47 "HgN/A
9:50 pm36 °FPassing clouds.8 mph93%29.50 "HgN/A
9:20 pm36 °FClear.8 mph93%29.50 "Hg10 mi
8:50 pm37 °FSunny.6 mph87%29.50 "Hg10 mi
8:20 pm37 °FScattered clouds.7 mph87%29.50 "HgN/A
7:50 pm39 °FPassing clouds.8 mph81%29.50 "HgN/A
7:20 pm41 °FSprinkles. Broken clouds.8 mph70%29.53 "HgN/A
6:50 pm43 °FSprinkles. Broken clouds.12 mph66%29.50 "HgN/A
6:20 pm43 °FSprinkles. Partly sunny.7 mph61%29.50 "HgN/A
5:50 pm41 °FSprinkles. Partly sunny.8 mph66%29.53 "HgN/A
5:20 pm41 °FSprinkles. Broken clouds.13 mph76%29.53 "HgN/A
4:50 pm41 °FBroken clouds.9 mph76%29.50 "HgN/A
4:20 pm41 °FPartly sunny.12 mph76%29.50 "HgN/A
3:50 pm41 °FScattered showers. Broken clouds.8 mph81%29.53 "HgN/A
3:20 pm39 °FSprinkles. Broken clouds.9 mph81%29.53 "HgN/A
Weather by CustomWeather, © 2017

See weather overviewHow to use our weather pages